Time,TemperatureF,DewpointF,PressureIn,WindDirection,WindDirectionDegrees,WindSpeedMPH,WindSpeedGustMPH,Humidity,HourlyPrecipIn,Conditions,Clouds,dailyrainin,SoftwareType,DateUTC
2013-02-25 00:05:00,41.2,34.0,29.82,ENE,57,3.0,5.0,74,0.00,,,0.00,weatherlink.com 1.10,2013-02-25 06:05:00,
2013-02-25 00:20:00,41.9,34.0,29.83,NE,56,0.0,5.0,73,0.00,,,0.00,weatherlink.com 1.10,2013-02-25 06:20:00,
2013-02-25 00:35:00,43.3,34.0,29.83,ESE,103,2.0,7.0,71,0.00,,,0.00,weatherlink.com 1.10,2013-02-25 06:35:00,
2013-02-25 00:50:00,44.2,35.0,29.83,ENE,69,3.0,9.0,69,0.00,,,0.00,weatherlink.com 1.10,2013-02-25 06:50:00,
2013-02-25 01:05:00,44.0,34.0,29.81,ESE,111,10.0,13.0,69,0.00,,,0.00,weatherlink.com 1.10,2013-02-25 07:05:00,
2013-02-25 01:20:00,44.0,34.0,29.81,ESE,106,4.0,9.0,69,0.00,,,0.00,weatherlink.com 1.10,2013-02-25 07:20:00,
2013-02-25 01:35:00,43.9,34.0,29.82,ENE,65,2.0,9.0,69,0.00,,,0.00,weatherlink.com 1.10,2013-02-25 07:35:00,
2013-02-25 01:50:00,44.0,34.0,29.81,ENE,69,0.0,10.0,69,0.00,,,0.00,weatherlink.com 1.10,2013-02-25 07:50:00,
2013-02-25 02:06:00,43.3,34.0,29.80,ENE,59,0.0,9.0,69,0.00,,,0.00,weatherlink.com 1.10,2013-02-25 08:06:00,
2013-02-25 02:21:00,42.5,33.0,29.80,ENE,62,5.0,9.0,70,0.00,,,0.00,weatherlink.com 1.10,2013-02-25 08:21:00,
2013-02-25 02:36:00,42.0,34.0,29.80,ENE,62,4.0,9.0,72,0.00,,,0.00,weatherlink.com 1.10,2013-02-25 08:36:00,
2013-02-25 02:51:00,41.7,33.0,29.79,ENE,57,5.0,8.0,72,0.00,,,0.00,weatherlink.com 1.10,2013-02-25 08:51:00,
2013-02-25 03:06:00,41.2,33.0,29.78,ENE,57,3.0,10.0,73,0.00,,,0.00,weatherlink.com 1.10,2013-02-25 09:06:00,
2013-02-25 03:21:00,41.2,34.0,29.79,NE,53,0.0,6.0,74,0.00,,,0.00,weatherlink.com 1.10,2013-02-25 09:21:00,
2013-02-25 03:36:00,41.0,33.0,29.79,ENE,62,0.0,4.0,74,0.00,,,0.00,weatherlink.com 1.10,2013-02-25 09:36:00,
2013-02-25 03:51:00,40.6,33.0,29.78,NNE,24,0.0,4.0,75,0.00,,,0.00,weatherlink.com 1.10,2013-02-25 09:51:00,
2013-02-25 04:06:00,40.4,33.0,29.76,NNE,19,0.0,6.0,75,0.00,,,0.00,weatherlink.com 1.10,2013-02-25 10:06:00,
2013-02-25 04:21:00,40.4,33.0,29.77,ENE,65,1.0,7.0,75,0.00,,,0.00,weatherlink.com 1.10,2013-02-25 10:21:00,
2013-02-25 04:36:00,40.5,33.0,29.77,NE,40,0.0,5.0,74,0.00,,,0.00,weatherlink.com 1.10,2013-02-25 10:36:00,
2013-02-25 04:51:00,40.2,33.0,29.75,NE,53,0.0,8.0,75,0.00,,,0.00,weatherlink.com 1.10,2013-02-25 10:51:00,
2013-02-25 05:06:00,39.9,33.0,29.74,NE,48,4.0,7.0,76,0.00,,,0.00,weatherlink.com 1.10,2013-02-25 11:06:00,
2013-02-25 05:21:00,40.1,33.0,29.73,NE,52,2.0,7.0,76,0.00,,,0.00,weatherlink.com 1.10,2013-02-25 11:21:00,
2013-02-25 05:36:00,40.2,33.0,29.71,East,80,7.0,13.0,76,0.00,,,0.00,weatherlink.com 1.10,2013-02-25 11:36:00,
2013-02-25 05:51:00,40.1,33.0,29.69,ENE,58,4.0,15.0,76,0.00,,,0.00,weatherlink.com 1.10,2013-02-25 11:51:00,
2013-02-25 06:06:00,39.9,33.0,29.69,ENE,61,7.0,11.0,76,0.00,,,0.00,weatherlink.com 1.10,2013-02-25 12:06:00,
2013-02-25 06:21:00,39.8,33.0,29.68,NNE,20,4.0,14.0,77,0.00,,,0.00,weatherlink.com 1.10,2013-02-25 12:21:00,
2013-02-25 06:36:00,39.7,33.0,29.68,NNE,14,5.0,13.0,77,0.00,,,0.00,weatherlink.com 1.10,2013-02-25 12:36:00,
2013-02-25 06:51:00,39.7,33.0,29.67,ENE,61,4.0,11.0,78,0.00,,,0.00,weatherlink.com 1.10,2013-02-25 12:51:00,
2013-02-25 07:06:00,40.0,33.0,29.67,NNE,28,4.0,8.0,77,0.00,,,0.00,weatherlink.com 1.10,2013-02-25 13:06:00,
2013-02-25 07:21:00,40.2,34.0,29.65,NNE,32,10.0,12.0,77,0.00,,,0.00,weatherlink.com 1.10,2013-02-25 13:21:00,
2013-02-25 07:36:00,40.0,34.0,29.67,NNE,29,1.0,11.0,79,0.00,,,0.00,weatherlink.com 1.10,2013-02-25 13:36:00,
2013-02-25 07:51:00,40.0,34.0,29.70,North,5,5.0,6.0,80,0.00,,,0.00,weatherlink.com 1.10,2013-02-25 13:51:00,
2013-02-25 08:06:00,39.4,35.0,29.69,NNE,15,13.0,14.0,83,0.03,,,0.03,weatherlink.com 1.10,2013-02-25 14:06:00,
2013-02-25 08:21:00,38.9,35.0,29.70,North,349,7.0,13.0,86,0.05,,,0.05,weatherlink.com 1.10,2013-02-25 14:21:00,
2013-02-25 08:36:00,38.7,35.0,29.69,NNW,347,6.0,17.0,87,0.05,,,0.05,weatherlink.com 1.10,2013-02-25 14:36:00,
2013-02-25 08:51:00,38.7,36.0,29.71,NNW,342,8.0,11.0,88,0.07,,,0.07,weatherlink.com 1.10,2013-02-25 14:51:00,
2013-02-25 09:07:00,38.4,36.0,29.70,NNW,346,4.0,16.0,89,0.07,,,0.10,weatherlink.com 1.10,2013-02-25 15:07:00,
2013-02-25 09:22:00,38.0,35.0,29.67,North,355,13.0,21.0,90,0.07,,,0.12,weatherlink.com 1.10,2013-02-25 15:22:00,
2013-02-25 09:37:00,37.8,35.0,29.61,North,5,25.0,25.0,90,0.10,,,0.15,weatherlink.com 1.10,2013-02-25 15:37:00,
2013-02-25 09:52:00,37.9,36.0,29.62,North,9,13.0,21.0,91,0.09,,,0.16,weatherlink.com 1.10,2013-02-25 15:52:00,
2013-02-25 10:07:00,37.8,36.0,29.60,NNW,340,11.0,21.0,91,0.08,,,0.18,weatherlink.com 1.10,2013-02-25 16:07:00,
2013-02-25 10:22:00,38.0,36.0,29.68,NNW,336,6.0,14.0,91,0.07,,,0.19,weatherlink.com 1.10,2013-02-25 16:22:00,
2013-02-25 10:37:00,37.6,36.0,29.67,NE,44,7.0,15.0,92,0.13,,,0.28,weatherlink.com 1.10,2013-02-25 16:37:00,
2013-02-25 10:52:00,37.6,36.0,29.63,NNW,348,17.0,25.0,92,0.15,,,0.31,weatherlink.com 1.10,2013-02-25 16:52:00,
2013-02-25 11:07:00,37.5,35.0,29.61,North,355,14.0,25.0,92,0.14,,,0.32,weatherlink.com 1.10,2013-02-25 17:07:00,
2013-02-25 11:22:00,37.4,36.0,29.65,North,360,6.0,20.0,93,0.19,,,0.38,weatherlink.com 1.10,2013-02-25 17:22:00,
2013-02-25 11:37:00,37.4,36.0,29.62,North,5,16.0,17.0,93,0.15,,,0.43,weatherlink.com 1.10,2013-02-25 17:37:00,
2013-02-25 11:52:00,37.6,36.0,29.60,NE,40,7.0,20.0,93,0.17,,,0.48,weatherlink.com 1.10,2013-02-25 17:52:00,
2013-02-25 12:07:00,37.7,36.0,29.58,NNE,14,14.0,24.0,93,0.19,,,0.51,weatherlink.com 1.10,2013-02-25 18:07:00,
2013-02-25 12:22:00,37.7,36.0,29.59,NNE,30,7.0,18.0,93,0.14,,,0.52,weatherlink.com 1.10,2013-02-25 18:22:00,
2013-02-25 12:37:00,37.7,36.0,29.59,NNE,22,2.0,18.0,93,0.08,,,0.52,weatherlink.com 1.10,2013-02-25 18:37:00,
2013-02-25 12:52:00,37.7,36.0,29.57,NE,47,6.0,16.0,92,0.05,,,0.53,weatherlink.com 1.10,2013-02-25 18:52:00,
2013-02-25 13:07:00,37.8,36.0,29.54,NNE,22,4.0,18.0,93,0.04,,,0.55,weatherlink.com 1.10,2013-02-25 19:07:00,
2013-02-25 13:22:00,38.1,36.0,29.54,ENE,71,8.0,20.0,93,0.04,,,0.56,weatherlink.com 1.10,2013-02-25 19:22:00,
2013-02-25 13:37:00,38.2,36.0,29.54,ENE,70,7.0,19.0,93,0.04,,,0.56,weatherlink.com 1.10,2013-02-25 19:37:00,
2013-02-25 13:52:00,38.0,36.0,29.53,North,9,7.0,23.0,92,0.03,,,0.56,weatherlink.com 1.10,2013-02-25 19:52:00,
2013-02-25 14:07:00,38.1,36.0,29.53,North,350,8.0,16.0,92,0.02,,,0.57,weatherlink.com 1.10,2013-02-25 20:07:00,
2013-02-25 14:22:00,38.0,36.0,29.52,North,5,14.0,19.0,92,0.01,,,0.57,weatherlink.com 1.10,2013-02-25 20:22:00,
2013-02-25 14:37:00,37.9,36.0,29.51,NE,53,8.0,21.0,91,0.02,,,0.58,weatherlink.com 1.10,2013-02-25 20:37:00,
2013-02-25 14:52:00,37.6,36.0,29.51,NE,37,3.0,21.0,92,0.03,,,0.59,weatherlink.com 1.10,2013-02-25 20:52:00,
2013-02-25 15:07:00,37.6,36.0,29.48,ENE,68,16.0,20.0,92,0.04,,,0.61,weatherlink.com 1.10,2013-02-25 21:07:00,
2013-02-25 15:22:00,37.9,36.0,29.48,NNE,32,4.0,25.0,92,0.04,,,0.61,weatherlink.com 1.10,2013-02-25 21:22:00,
2013-02-25 15:37:00,38.2,36.0,29.46,NE,40,17.0,23.0,92,0.03,,,0.61,weatherlink.com 1.10,2013-02-25 21:37:00,
2013-02-25 15:52:00,38.3,36.0,29.44,NE,54,15.0,25.0,92,0.02,,,0.61,weatherlink.com 1.10,2013-02-25 21:52:00,
2013-02-25 16:07:00,38.3,36.0,29.47,NNE,25,3.0,19.0,91,0.00,,,0.61,weatherlink.com 1.10,2013-02-25 22:07:00,
2013-02-25 16:22:00,38.3,36.0,29.48,ENE,61,10.0,17.0,91,0.00,,,0.61,weatherlink.com 1.10,2013-02-25 22:22:00,
2013-02-25 16:37:00,38.3,36.0,29.47,East,79,7.0,18.0,90,0.00,,,0.61,weatherlink.com 1.10,2013-02-25 22:37:00,
2013-02-25 16:52:00,38.3,35.0,29.47,NNE,27,0.0,20.0,89,0.00,,,0.61,weatherlink.com 1.10,2013-02-25 22:52:00,
2013-02-25 17:07:00,38.1,35.0,29.46,ENE,59,3.0,14.0,89,0.00,,,0.61,weatherlink.com 1.10,2013-02-25 23:07:00,
2013-02-25 17:22:00,37.7,35.0,29.48,North,11,4.0,14.0,91,0.01,,,0.62,weatherlink.com 1.10,2013-02-25 23:22:00,
2013-02-25 17:37:00,37.5,35.0,29.48,NNE,32,8.0,17.0,92,0.01,,,0.62,weatherlink.com 1.10,2013-02-25 23:37:00,
2013-02-25 18:07:00,37.5,36.0,29.48,NNE,22,5.0,15.0,93,0.02,,,0.63,weatherlink.com 1.10,2013-02-26 00:07:00,
2013-02-25 18:22:00,37.4,36.0,29.50,North,360,5.0,14.0,93,0.02,,,0.64,weatherlink.com 1.10,2013-02-26 00:22:00,
2013-02-25 18:37:00,37.4,36.0,29.51,North,360,6.0,10.0,93,0.03,,,0.65,weatherlink.com 1.10,2013-02-26 00:37:00,
2013-02-25 18:52:00,36.8,35.0,29.51,North,355,11.0,17.0,93,0.06,,,0.69,weatherlink.com 1.10,2013-02-26 00:52:00,
2013-02-25 19:07:00,36.4,35.0,29.51,ENE,59,10.0,14.0,93,0.08,,,0.71,weatherlink.com 1.10,2013-02-26 01:07:00,
2013-02-25 19:22:00,36.1,35.0,29.50,NNE,14,5.0,15.0,94,0.08,,,0.72,weatherlink.com 1.10,2013-02-26 01:22:00,
2013-02-25 19:37:00,36.2,35.0,29.50,NNE,13,8.0,14.0,94,0.09,,,0.74,weatherlink.com 1.10,2013-02-26 01:37:00,
2013-02-25 19:52:00,36.0,35.0,29.50,North,9,8.0,14.0,94,0.08,,,0.77,weatherlink.com 1.10,2013-02-26 01:52:00,
2013-02-25 20:08:00,35.6,34.0,29.50,North,5,9.0,16.0,94,0.09,,,0.80,weatherlink.com 1.10,2013-02-26 02:08:00,
2013-02-25 20:23:00,35.1,34.0,29.50,North,355,11.0,17.0,94,0.11,,,0.83,weatherlink.com 1.10,2013-02-26 02:23:00,
2013-02-25 20:38:00,34.9,33.0,29.49,North,360,11.0,14.0,94,0.10,,,0.84,weatherlink.com 1.10,2013-02-26 02:38:00,
2013-02-25 20:53:00,34.6,33.0,29.48,North,360,9.0,16.0,94,0.08,,,0.85,weatherlink.com 1.10,2013-02-26 02:53:00,
2013-02-25 21:08:00,34.5,33.0,29.48,North,355,7.0,15.0,94,0.05,,,0.85,weatherlink.com 1.10,2013-02-26 03:08:00,
2013-02-25 21:23:00,34.7,33.0,29.48,North,360,5.0,13.0,94,0.02,,,0.85,weatherlink.com 1.10,2013-02-26 03:23:00,
2013-02-25 21:38:00,35.0,34.0,29.48,NNW,337,11.0,16.0,94,0.01,,,0.85,weatherlink.com 1.10,2013-02-26 03:38:00,
2013-02-25 21:53:00,35.1,34.0,29.48,NNW,340,11.0,16.0,94,0.00,,,0.85,weatherlink.com 1.10,2013-02-26 03:53:00,
2013-02-25 22:08:00,35.0,34.0,29.48,NNE,13,8.0,15.0,94,0.00,,,0.85,weatherlink.com 1.10,2013-02-26 04:08:00,
2013-02-25 22:23:00,34.8,33.0,29.48,NNE,19,13.0,14.0,94,0.00,,,0.85,weatherlink.com 1.10,2013-02-26 04:23:00,
2013-02-25 22:38:00,34.3,33.0,29.48,North,349,13.0,16.0,94,0.01,,,0.86,weatherlink.com 1.10,2013-02-26 04:38:00,
2013-02-25 22:53:00,33.3,32.0,29.48,North,351,11.0,16.0,94,0.02,,,0.87,weatherlink.com 1.10,2013-02-26 04:53:00,
2013-02-25 23:08:00,33.0,32.0,29.48,North,5,11.0,18.0,94,0.03,,,0.88,weatherlink.com 1.10,2013-02-26 05:08:00,
2013-02-25 23:23:00,32.8,31.0,29.48,NW,317,10.0,17.0,94,0.03,,,0.88,weatherlink.com 1.10,2013-02-26 05:23:00,
2013-02-25 23:38:00,32.4,31.0,29.48,NNW,335,9.0,19.0,94,0.03,,,0.89,weatherlink.com 1.10,2013-02-26 05:38:00,
2013-02-25 23:53:00,32.1,31.0,29.48,NNW,348,8.0,17.0,94,0.02,,,0.89,weatherlink.com 1.10,2013-02-26 05:53:00,